Regional Weather Roundup
Issued by NWS

Home | Current Version | Previous Version | Text Only | Print | Product List | Glossary Off
Versions: 1 2 3 4 5 6 7 8 9 10 11 12 13 14 15 16 17 18 19 20 21 22 23 24 25 26 27 28 29 30 31 32 33 34 35 36 37 38 39 40 41 42 43 44 45 46 47 48 49 50

000
ASUS43 KMKX 170159
RWRWI

WISCONSIN REGIONAL WEATHER ROUNDUP
NATIONAL WEATHER SERVICE MILWAUKEE/SULLIVAN WI
800 PM CST SAT DEC 16 2017

NOTE: "FAIR" INDICATES FEW OR NO CLOUDS BELOW 12,000 FEET WITH NO
SIGNIFICANT WEATHER AND/OR OBSTRUCTIONS TO VISIBILITY.

WIZ001-002-006>008-014>016-023>028-170300-
NORTHWEST WISCONSIN

CITY           SKY/WX    TMP DP  RH WIND       PRES   REMARKS
SUPERIOR ARPT  CLOUDY    22  13  70 SE3       30.12R
ASHLAND        CLOUDY    21  13  71 CALM      30.11R
HAYWARD        CLOUDY    20  12  71 CALM      30.08R
SIREN          CLOUDY    22  16  77 CALM      30.09R
CUMBERLAND     CLOUDY    18  12  79 CALM      30.07R
RICE LAKE      CLOUDY    20  15  79 CALM      30.10R
CHETEK         CLOUDY    20  16  82 CALM      30.08R
LADYSMITH      CLOUDY    23  18  81 SE5       30.09R WCI  16
EAU CLAIRE     NOT AVBL
MENOMONIE      CLOUDY    18  15  88 E3        30.08R
NEW RICHMOND   CLOUDY    18  14  84 N5        30.08R WCI  11
OSCEOLA        CLOUDY    23  18  80 CALM      30.11R
$$

WIZ003>005-009-010-017-018-170300-
NORTH CENTRAL WISCONSIN

CITY           SKY/WX    TMP DP  RH WIND       PRES   REMARKS
MANITOWISH WTR CLOUDY    18  11  76 SE5       30.06R WCI  11
ARBOR VITAE    CLOUDY    19  13  76 E5        30.06R WCI  13
WOODRUFF       CLOUDY    19  13  76 E5        30.06R WCI  13
RHINELANDER    CLOUDY    19  16  88 SE9       30.07S WCI   8
EAGLE RIVER    CLOUDY    18  12  75 E6        30.08R WCI  10
LAND O LAKES   CLOUDY    18  12  76 SE3       30.09R
PHILLIPS       CLOUDY    19  13  80 E3        30.05R
TOMAHAWK       CLOUDY    18  13  82 CALM      30.07F
MEDFORD        CLOUDY    21  16  83 E7        30.05S WCI  12
MERRILL        CLOUDY    21  19  91 E6        30.10R WCI  14
$$

WIZ029-030-035-036-043>047-170300-
CENTRAL WISCONSIN

CITY           SKY/WX    TMP DP  RH WIND       PRES   REMARKS
WAUSAU         CLOUDY    21  18  88 E7        30.08R WCI  12
MOSINEE        NOT AVBL
MARSHFIELD     CLOUDY    23  18  81 E9        30.07R WCI  13
STEVENS POINT  CLOUDY    21  18  87 E7        30.10R WCI  12
WAUPACA        CLOUDY    26  20  79 NE3       30.12R
WAUTOMA        CLOUDY    25  20  81 NE8       30.11R WCI  16
WISC RAPIDS    CLOUDY    24  17  74 E9        30.10R WCI  14
CAMP DOUGLAS   CLOUDY    26  22  87 E7        30.08R WCI  18
$$

WIZ011>013-019>022-031-037>040-048>050-170300-
NORTHEAST WISCONSIN

CITY           SKY/WX    TMP DP  RH WIND       PRES   REMARKS
ANTIGO         CLOUDY    19  17  93 E8        30.08S WCI   9
SHAWANO        CLOUDY    24  19  83 NE5       30.13S WCI  18
OCONTO         CLOUDY    23  19  85 N5        30.14S WCI  17
STURGEON BAY   CLOUDY    27  22  81 E6        30.14S WCI  20
GREEN BAY      CLOUDY    27  22  81 NE6       30.13R WCI  20
MANITOWOC      CLOUDY    29  24  82 E5        30.13R WCI  24
APPLETON       CLOUDY    25  18  74 NE3       30.10R
CLINTONVILLE   CLOUDY    23  18  80 NE5       30.12R WCI  17
OSHKOSH        CLOUDY    27  22  81 NE10      30.10R WCI  17
$$

WIZ032>034-041-042-053>061-170300-
SOUTHWEST WISCONSIN

CITY           SKY/WX    TMP DP  RH WIND       PRES   REMARKS
LA CROSSE      CLOUDY    29  25  85 E9        30.07R WCI  20
SPARTA         CLOUDY    26  25  96 E8        30.08R FOG     WCI  17
VIROQUA        CLOUDY    28  28 100 E3        30.03R
BOSCOBEL       CLOUDY    32  27  81 E5        30.05R WCI  27
PRAIRIE DU CHI PTCLDY    32  24  73 NE3       30.03R
PLATTEVILLE    CLEAR     32  30  93 E12       30.00F WCI  23
$$

WIZ056-057-062-063-064-067-068-170300-
SOUTH CENTRAL WISCONSIN

CITY           SKY/WX    TMP DP  RH WIND       PRES   REMARKS
REEDSBURG      CLOUDY    27  26  95 NE8       30.06S WCI  18
BARABOO/DELLS  CLOUDY    27  24  89 NE8       30.07R WCI  18
LONE ROCK      NOT AVBL
MINERAL POINT  PTCLDY    32  32 100 E9        30.00S WCI  24
MADISON        CLOUDY    31  28  89 NE9       30.07R WCI  23
MIDDLETON      CLOUDY    33  30  90 E9        30.06R WCI  25
WATERTOWN      CLOUDY    31  30  97 NE9       30.06R WCI  23
MONROE         MOCLDY    30  30 100 NE10      30.02R WCI  21
JANESVILLE     CLEAR     32  32 100 NE6       30.03R FOG     WCI  26
$$

WIZ051-052-058>065-066-070>072-170300-
SOUTHEAST WISCONSIN

CITY           SKY/WX    TMP DP  RH WIND       PRES   REMARKS
MILWAUKEE      CLOUDY    36  33  89 NE14      30.07R WCI  27
WAUKESHA       CLOUDY    30  28  93 NE6       30.06R WCI  24
MILWAUKEE/TIMM CLOUDY    34  28  80 NE6       30.08R WCI  29
RACINE         PTCLDY    33  32  96 N5        30.07R WCI  29
BURLINGTON     FOG       46  46 100 NE3       30.04R VSB 1
KENOSHA        PTCLDY    33  28  81 NE6       30.05R WCI  28
FOND DU LAC    CLOUDY    29  21  72 NE8       30.10R WCI  21
SHEBOYGAN      CLOUDY    30  27  88 NE9       30.11R WCI  22
WEST BEND      CLOUDY    30  28  93 NE6       30.08R WCI  24
JUNEAU         CLOUDY    28  24  82 NE9       30.08S WCI  20
$$

LSZ147-162-170300-
LAKE SUPERIOR

STATION/POSITION TIME  TEMP    WIND        PRES    WAVE
                       AIR SEA DIR/SP/G            HT/PER
                 (UTC) (F)     (DEG/KT/KT) (MB)    (FT/S)
DEVILS ISLAND    0100   25     130/  7/  9 1020.7R
SAXON HARBOR     0130   22                 1019.3R
$$

LMZ867-665-643>646-170300-
LAKE MICHIGAN

STATION/POSITION TIME  TEMP    WIND        PRES    WAVE
                       AIR SEA DIR/SP/G            HT/PER
                 (UTC) (F)     (DEG/KT/KT) (MB)    (FT/S)
NORTHPORT PIER   0140   26      80/ 10/ 15 1021.7R
KEWAUNEE LAKESHO 0130   30      80/  6/ 11 1019.2S
SHEBOYGAN LAKESH 0100   32      50/ 12/ 13 1019.7R
PORT WASHINGTON  0140   35      70/ 10/ 12 1020.0R
MILWAUKEE LAKESH 0130   35      60/ 15/ 17   N/A
KENOSHA   LAKESH 0100   36      10/  6/  8 1017.3
$$

TC  - TEMPERATURE IN CELSIUS
VSB - VISIBILITY IN STATUTE MILES
WCI - WIND CHILL INDEX
HX  - HEAT INDEX





USA.gov is the U.S. government's official web portal to all federal, state and local government web resources and services.